Home > Weather > Leonding > Past weeks

Flag for Austria Weather for the Past 2 Weeks in Leonding, Upper Austria, Austria

Now
36 °F

Clear.


Feels Like: 29 °F
Forecast: 38 / 52 °F
Wind: 8 mph from East

Location: Linz / Hoersching-Flughafen

Current Time: Feb 7, 2016 at 5:08:19 AM

Latest Report: Feb 7, 2016 at 3:50 AM


Visibility: 10 mi

Pressure: 29.80 "Hg

Humidity: 87%

Dew point: 32 °F

Location of LeondingLocation

Historic Weather in Leonding — Graph

°F

Leonding Temperature Yesterday

Maximum temperature yesterday: 45 °F (at 2:20 PM)
Minimum temperature yesterday: 27 °F (at 7:20 AM)
Average temperature yesterday: 36 °F

High & Low Weather Summary for the Past Weeks

 TemperatureHumidityPressure
High55 °F (Jan 28, 2:20 PM)100% (Jan 23, 3:50 PM)30.60 "Hg (Jan 23, 3:50 PM)
Low10 °F (Jan 23, 3:50 AM)55% (Jan 28, 2:20 PM)29.80 "Hg (Feb 7, 3:20 AM)
Average38 °F89%30.25 "Hg
* Reported Jan 23 3:50 AM — Feb 7 3:50 AM, Leonding, Weather by CustomWeather, © 2016

Note: Actual official high and low records may vary slightly from our data, if they occured in-between our weather recording intervals... More about our weather records

Advertising

Leonding Weather History for the Previous 24 Hours

 ConditionsComfort  
Time TempWeatherWind HumidityBarometerVisibility
3:50 AM
Sun, Feb 7
36 °FClear.8 mph87%29.80 "Hg10 mi
3:20 AM36 °FPassing clouds.9 mph87%29.80 "HgN/A
2:50 AM37 °FChilly.9 mph87%29.83 "HgN/A
2:20 AM36 °FPassing clouds.7 mph87%29.83 "HgN/A
1:50 AM34 °FChilly.6 mph93%29.86 "HgN/A
12:50 AM34 °FChilly.8 mph93%29.86 "HgN/A
11:50 PM
Sat, Feb 6
37 °FChilly.9 mph87%29.89 "HgN/A
10:50 PM37 °FPassing clouds.3 mph93%29.92 "HgN/A
9:50 PM39 °FClear.3 mph87%29.95 "Hg10 mi
9:20 PM41 °FClear.5 mph87%29.95 "Hg10 mi
8:50 PM43 °FClear.6 mph81%29.98 "Hg10 mi
8:20 PM43 °FClear.5 mph81%29.98 "Hg10 mi
7:50 PM43 °FClear.9 mph81%29.98 "Hg10 mi
7:20 PM43 °FClear.7 mph81%30.01 "Hg10 mi
6:50 PM43 °FClear.10 mph81%30.01 "Hg10 mi
6:20 PM43 °FClear.6 mph76%30.01 "Hg10 mi
5:50 PM43 °FClear.5 mph76%30.04 "Hg10 mi
5:20 PM43 °FClear.3 mph81%30.04 "Hg10 mi
4:50 PM45 °FSunny.6 mph76%30.07 "Hg10 mi
4:20 PM45 °FSunny.2 mph81%30.07 "Hg10 mi
3:50 PM45 °FSunny.2 mph76%30.07 "Hg10 mi
3:20 PM45 °FSunny.1 mph76%30.09 "Hg10 mi
2:50 PM45 °FSunny.2 mph76%30.09 "Hg10 mi
2:20 PM45 °FSunny.2 mph76%30.12 "Hg10 mi
1:50 PM43 °FPartly sunny.1 mph81%30.12 "HgN/A
1:20 PM39 °FPartly sunny.2 mph87%30.15 "Hg5 mi
12:50 PM37 °FFog.3 mph93%30.15 "Hg3 mi
12:20 PM36 °FScattered clouds.3 mph100%30.18 "Hg1 mi
11:50 AM34 °FFog.2 mph100%30.18 "Hg0 mi
11:20 AM32 °FFog.1 mph100%30.21 "Hg0 mi
10:50 AM32 °FFog.2 mph100%30.21 "Hg0 mi
10:20 AM30 °FIce fog.2 mph100%30.21 "Hg0 mi
9:50 AM30 °FIce fog.3 mph100%30.21 "Hg0 mi
9:20 AM30 °FIce fog.2 mph100%30.21 "Hg0 mi
8:50 AM28 °FIce fog.2 mph100%30.24 "Hg0 mi
8:20 AM28 °FIce fog.2 mph100%30.24 "Hg0 mi
7:50 AM28 °FIce fog.2 mph100%30.24 "Hg0 mi
7:20 AM27 °FIce fog.2 mph100%30.21 "Hg0 mi
6:50 AM28 °FIce fog.2 mph100%30.21 "Hg0 mi
6:20 AM28 °FIce fog.2 mph100%30.21 "Hg0 mi
5:50 AM30 °FIce fog.1 mph93%30.21 "Hg1 mi
Weather by CustomWeather, © 2016

See weather overviewHow to use our weather pages